,,PA_Meas_PMT16A,,PR_Meas_QMR101_102,,RH_Meas_QMH101,,SR_Meas_QMS101,,TA_Meas_QMH101,,GenWind,,GenWind,
time,status,PA,status,PR,status,RH,status,SR,status,TA,status,DirAvg,status,SpdAvg,
2011-03-01, 00:00:04,VALID,917.68,VALID,0,VALID,93.5317,VALID,0,VALID,18.416,VALID,286,VALID,0.19375,
2011-03-01, 00:01:04,VALID,917.675,VALID,0,VALID,93.1124,VALID,0,VALID,18.455,VALID,286,VALID,0.150391,
2011-03-01, 00:02:04,VALID,917.698,VALID,0,VALID,92.8532,VALID,0,VALID,18.4745,VALID,286,VALID,0.04375,
2011-03-01, 00:03:04,VALID,917.672,VALID,0,VALID,92.6702,VALID,0,VALID,18.4954,VALID,286,VALID,0,
2011-03-01, 00:04:04,VALID,917.677,VALID,0,VALID,92.472,VALID,0,VALID,18.4954,VALID,286,VALID,0,
2011-03-01, 00:05:04,VALID,917.683,VALID,0,VALID,92.3348,VALID,0,VALID,18.5358,VALID,286,VALID,0,
2011-03-01, 00:06:04,VALID,917.675,VALID,0,VALID,92.0985,VALID,0,VALID,18.5149,VALID,286,VALID,0,
2011-03-01, 00:07:04,VALID,917.677,VALID,0,VALID,91.8088,VALID,0,VALID,18.5344,VALID,286,VALID,0,
2011-03-01, 00:08:04,VALID,917.675,VALID,0,VALID,91.6945,VALID,0,VALID,18.5539,VALID,286,VALID,0,
2011-03-01, 00:09:04,VALID,917.661,VALID,0,VALID,91.4734,VALID,0,VALID,18.5734,VALID,286,VALID,0,
2011-03-01, 00:10:04,VALID,917.686,VALID,0,VALID,91.4505,VALID,0,VALID,18.5734,VALID,286,VALID,0,
2011-03-01, 00:11:04,VALID,917.639,VALID,0,VALID,91.42,VALID,0,VALID,18.5748,VALID,286,VALID,0,
2011-03-01, 00:12:04,VALID,917.617,VALID,0,VALID,91.1532,VALID,0,VALID,18.5344,VALID,286,VALID,0.208594,
2011-03-01, 00:13:04,VALID,917.627,VALID,0,VALID,91.0465,VALID,0,VALID,18.5539,VALID,286,VALID,0.235547,
2011-03-01, 00:14:04,VALID,917.647,VALID,0,VALID,91.1456,VALID,0,VALID,18.5734,VALID,286,VALID,0.213281,
2011-03-01, 00:15:04,VALID,917.602,VALID,0,VALID,91.3209,VALID,0,VALID,18.5539,VALID,286,VALID,0,
2011-03-01, 00:16:04,VALID,917.612,VALID,0,VALID,91.5572,VALID,0,VALID,18.5344,VALID,286,VALID,0,
2011-03-01, 00:17:04,VALID,917.582,VALID,0,VALID,91.8317,VALID,0,VALID,18.5344,VALID,286,VALID,0.183203,
2011-03-01, 00:18:04,VALID,917.567,VALID,0,VALID,91.6106,VALID,0.107441,VALID,18.5121,VALID,286,VALID,0,
2011-03-01, 00:19:04,VALID,917.578,VALID,0,VALID,91.6258,VALID,0,VALID,18.5135,VALID,286,VALID,0,
2011-03-01, 00:20:04,VALID,917.587,VALID,0,VALID,91.5725,VALID,0,VALID,18.4745,VALID,286,VALID,0,
2011-03-01, 00:21:04,VALID,917.547,VALID,0,VALID,90.9855,VALID,0.107441,VALID,18.455,VALID,286,VALID,0.307422,
2011-03-01, 00:22:04,VALID,917.548,VALID,0,VALID,91.0465,VALID,0,VALID,18.4954,VALID,286,VALID,0.457422,
2011-03-01, 00:23:04,VALID,917.557,VALID,0,VALID,91.0846,VALID,0,VALID,18.455,VALID,286,VALID,0,
2011-03-01, 00:24:04,VALID,917.512,VALID,0,VALID,90.6348,VALID,0,VALID,18.416,VALID,286,VALID,0.797266,
2011-03-01, 00:25:04,VALID,917.491,VALID,0,VALID,90.5204,VALID,0,VALID,18.3965,VALID,286,VALID,0.555859,
2011-03-01, 00:26:04,VALID,917.492,VALID,0,VALID,90.7415,VALID,0,VALID,18.338,VALID,286,VALID,0.734375,
2011-03-01, 00:27:04,VALID,917.493,VALID,0,VALID,90.5204,VALID,0,VALID,18.299,VALID,60,VALID,0.933594,
2011-03-01, 00:28:04,VALID,917.467,VALID,0,VALID,90.2308,VALID,0,VALID,18.338,VALID,60,VALID,0.839063,
2011-03-01, 00:29:04,VALID,917.485,VALID,0,VALID,90.0707,VALID,0,VALID,18.3965,VALID,60,VALID,0.867969,
2011-03-01, 00:30:04,VALID,917.478,VALID,0,VALID,90.1164,VALID,0.107441,VALID,18.3561,VALID,60,VALID,0.778906,
2011-03-01, 00:31:04,VALID,917.44,VALID,0,VALID,90.5357,VALID,0,VALID,18.3394,VALID,60,VALID,0.710938,
2011-03-01, 00:32:04,VALID,917.459,VALID,0,VALID,90.7339,VALID,0,VALID,18.3185,VALID,60,VALID,0.455078,
2011-03-01, 00:33:04,VALID,917.406,VALID,0,VALID,90.6272,VALID,0,VALID,18.338,VALID,60,VALID,0.492578,
2011-03-01, 00:34:04,VALID,917.43,VALID,0,VALID,90.5586,VALID,0,VALID,18.377,VALID,60,VALID,0.543359,
2011-03-01, 00:35:04,VALID,917.401,VALID,0,VALID,90.4213,VALID,0,VALID,18.3965,VALID,60,VALID,0.473828,
2011-03-01, 00:36:04,VALID,917.401,VALID,0,VALID,90.5509,VALID,0,VALID,18.3965,VALID,60,VALID,0,
2011-03-01, 00:37:04,VALID,917.407,VALID,0,VALID,90.7034,VALID,0,VALID,18.3965,VALID,60,VALID,0.564844,
2011-03-01, 00:38:04,VALID,917.399,VALID,0,VALID,90.9855,VALID,0,VALID,18.3965,VALID,60,VALID,0.291016,
2011-03-01, 00:39:04,VALID,917.393,VALID,0,VALID,90.8101,VALID,0,VALID,18.4564,VALID,60,VALID,0,
2011-03-01, 00:40:04,VALID,917.38,VALID,0,VALID,90.65,VALID,0,VALID,18.455,VALID,60,VALID,0,
2011-03-01, 00:41:04,VALID,917.397,VALID,0,VALID,90.6424,VALID,0,VALID,18.494,VALID,60,VALID,0,
2011-03-01, 00:42:04,VALID,917.364,VALID,0,VALID,90.5662,VALID,0,VALID,18.4745,VALID,60,VALID,0,
2011-03-01, 00:43:04,VALID,917.364,VALID,0,VALID,90.5967,VALID,0,VALID,18.4355,VALID,60,VALID,0.511719,
2011-03-01, 00:44:04,VALID,917.375,VALID,0,VALID,90.6348,VALID,0,VALID,18.4355,VALID,60,VALID,0,
2011-03-01, 00:45:04,VALID,917.378,VALID,0,VALID,90.6577,VALID,0,VALID,18.416,VALID,60,VALID,0,
2011-03-01, 00:46:04,VALID,917.359,VALID,0,VALID,90.2079,VALID,0,VALID,18.3965,VALID,60,VALID,0.0644531,
2011-03-01, 00:47:04,VALID,917.344,VALID,0,VALID,90.5967,VALID,0,VALID,18.3575,VALID,60,VALID,0.0328125,
2011-03-01, 00:48:04,VALID,917.312,VALID,0,VALID,91.1684,VALID,0.107441,VALID,18.338,VALID,60,VALID,0,
2011-03-01, 00:49:04,VALID,917.314,VALID,0,VALID,91.0693,VALID,0,VALID,18.3589,VALID,60,VALID,0,
2011-03-01, 00:50:04,VALID,917.267,VALID,0,VALID,91.5039,VALID,0.107441,VALID,18.3394,VALID,60,VALID,0.392578,
2011-03-01, 00:51:04,VALID,917.256,VALID,0,VALID,91.4581,VALID,0,VALID,18.3394,VALID,60,VALID,0.174609,
2011-03-01, 00:52:04,VALID,917.245,VALID,0,VALID,91.3514,VALID,0,VALID,18.3199,VALID,60,VALID,0,
2011-03-01, 00:53:04,VALID,917.195,VALID,0,VALID,91.4048,VALID,0,VALID,18.2601,VALID,60,VALID,0.425781,
2011-03-01, 00:54:04,VALID,917.211,VALID,0,VALID,91.4505,VALID,0,VALID,18.3004,VALID,60,VALID,0,
2011-03-01, 00:55:04,VALID,917.161,VALID,0,VALID,91.9231,VALID,0,VALID,18.2601,VALID,60,VALID,0.0105469,
2011-03-01, 00:56:04,VALID,917.147,VALID,0,VALID,92.1214,VALID,0,VALID,18.2796,VALID,60,VALID,0.155859,
2011-03-01, 00:57:04,VALID,917.143,VALID,0,VALID,91.8393,VALID,0,VALID,18.3172,VALID,60,VALID,0.125391,
2011-03-01, 00:58:04,VALID,917.101,VALID,0,VALID,91.6868,VALID,0,VALID,18.338,VALID,60,VALID,0,
2011-03-01, 00:59:04,VALID,917.123,VALID,0,VALID,91.5191,VALID,0,VALID,18.338,VALID,60,VALID,0,
2011-03-01, 01:00:04,VALID,917.036,VALID,0,VALID,91.6487,VALID,0.107441,VALID,18.338,VALID,60,VALID,0,
2011-03-01, 01:01:04,VALID,917.061,VALID,0,VALID,91.885,VALID,0,VALID,18.3575,VALID,60,VALID,0,
2011-03-01, 01:02:04,VALID,917.014,VALID,0,VALID,92.0223,VALID,0,VALID,18.3965,VALID,60,VALID,0,
2011-03-01, 01:03:04,VALID,916.986,VALID,0,VALID,91.9613,VALID,0,VALID,18.377,VALID,60,VALID,0,
2011-03-01, 01:04:04,VALID,916.951,VALID,0,VALID,91.7783,VALID,0,VALID,18.4174,VALID,60,VALID,0,
2011-03-01, 01:05:04,VALID,916.934,VALID,0,VALID,91.7707,VALID,0,VALID,18.3965,VALID,60,VALID,0,
2011-03-01, 01:06:04,VALID,916.926,VALID,0,VALID,91.7021,VALID,0,VALID,18.416,VALID,60,VALID,0,
2011-03-01, 01:07:04,VALID,916.914,VALID,0,VALID,91.4581,VALID,0,VALID,18.455,VALID,60,VALID,0,
2011-03-01, 01:08:04,VALID,916.884,VALID,0,VALID,91.0236,VALID,0,VALID,18.5135,VALID,60,VALID,0,
2011-03-01, 01:09:04,VALID,916.854,VALID,0,VALID,90.8254,VALID,0,VALID,18.572,VALID,60,VALID,0,
2011-03-01, 01:10:04,VALID,916.885,VALID,0,VALID,90.6653,VALID,0,VALID,18.572,VALID,60,VALID,0,
2011-03-01, 01:11:04,VALID,916.867,VALID,0,VALID,90.711,VALID,0,VALID,18.6124,VALID,60,VALID,0,
2011-03-01, 01:12:04,VALID,916.846,VALID,0,VALID,90.6958,VALID,0,VALID,18.5929,VALID,60,VALID,0,
2011-03-01, 01:13:04,VALID,916.846,VALID,0,VALID,90.5357,VALID,0,VALID,18.572,VALID,60,VALID,0,
2011-03-01, 01:14:04,VALID,916.831,VALID,0,VALID,90.6653,VALID,0,VALID,18.5734,VALID,60,VALID,0.297656,
2011-03-01, 01:15:04,VALID,916.813,VALID,0,VALID,90.5281,VALID,0,VALID,18.5734,VALID,60,VALID,0.151562,
2011-03-01, 01:16:04,VALID,916.828,VALID,0,VALID,90.124,VALID,0,VALID,18.5914,VALID,60,VALID,0.0753906,
2011-03-01, 01:17:04,VALID,916.778,VALID,0,VALID,90.0402,VALID,0,VALID,18.6304,VALID,60,VALID,0.103125,
2011-03-01, 01:18:04,VALID,916.786,VALID,0,VALID,89.7733,VALID,0,VALID,18.6708,VALID,60,VALID,0.294922,
2011-03-01, 01:19:04,VALID,916.748,VALID,0,VALID,89.6514,VALID,0,VALID,18.7726,VALID,60,VALID,0.285156,
2011-03-01, 01:20:04,VALID,916.734,VALID,0,VALID,89.3922,VALID,0,VALID,18.7084,VALID,60,VALID,0.207422,
2011-03-01, 01:21:04,VALID,916.737,VALID,0,VALID,89.5065,VALID,0,VALID,18.7488,VALID,60,VALID,0.101953,
2011-03-01, 01:22:04,VALID,916.707,VALID,0,VALID,89.415,VALID,0,VALID,18.7084,VALID,60,VALID,0,
2011-03-01, 01:23:04,VALID,916.702,VALID,0,VALID,89.4532,VALID,0,VALID,18.7279,VALID,60,VALID,0,
2011-03-01, 01:24:04,VALID,916.717,VALID,0,VALID,89.2854,VALID,0,VALID,18.7279,VALID,60,VALID,0,
2011-03-01, 01:25:04,VALID,916.694,VALID,0,VALID,89.2778,VALID,0,VALID,18.7474,VALID,60,VALID,0,
2011-03-01, 01:26:04,VALID,916.69,VALID,0,VALID,89.2473,VALID,0,VALID,18.7878,VALID,60,VALID,0,
2011-03-01, 01:27:04,VALID,916.693,VALID,0,VALID,89.133,VALID,0,VALID,18.7474,VALID,60,VALID,0,
2011-03-01, 01:28:04,VALID,916.693,VALID,0,VALID,88.7137,VALID,0,VALID,18.7669,VALID,60,VALID,0,
2011-03-01, 01:29:04,VALID,916.665,VALID,0,VALID,88.2029,VALID,0,VALID,18.8449,VALID,60,VALID,0,
2011-03-01, 01:30:04,VALID,916.657,VALID,0,VALID,87.7684,VALID,0,VALID,18.9034,VALID,60,VALID,0,
2011-03-01, 01:31:04,VALID,916.656,VALID,0,VALID,88.0047,VALID,0,VALID,18.9214,VALID,60,VALID,0,
2011-03-01, 01:32:04,VALID,916.671,VALID,0,VALID,88.0428,VALID,0,VALID,18.9424,VALID,60,VALID,0,
2011-03-01, 01:33:04,VALID,916.646,VALID,0,VALID,88.0733,VALID,0,VALID,18.9229,VALID,60,VALID,0,
2011-03-01, 01:34:04,VALID,916.617,VALID,0,VALID,87.6312,VALID,0,VALID,18.9229,VALID,60,VALID,0,
2011-03-01, 01:35:04,VALID,916.604,VALID,0,VALID,88.0809,VALID,0,VALID,18.9229,VALID,60,VALID,0,
2011-03-01, 01:36:04,VALID,916.612,VALID,0,VALID,87.8751,VALID,0,VALID,18.9633,VALID,60,VALID,0,
2011-03-01, 01:37:04,VALID,916.568,VALID,0,VALID,88.1114,VALID,0,VALID,18.9633,VALID,60,VALID,0.196875,
2011-03-01, 01:38:04,VALID,916.572,VALID,0,VALID,88.1419,VALID,0,VALID,18.9438,VALID,60,VALID,0.187891,
2011-03-01, 01:39:04,VALID,916.556,VALID,0,VALID,88.0809,VALID,0,VALID,18.8839,VALID,60,VALID,0.164063,
2011-03-01, 01:40:04,VALID,916.564,VALID,0,VALID,88.3325,VALID,0,VALID,18.8853,VALID,60,VALID,0,
2011-03-01, 01:41:04,VALID,916.512,VALID,0,VALID,87.6693,VALID,0,VALID,18.8658,VALID,60,VALID,0,
2011-03-01, 01:42:04,VALID,916.524,VALID,0,VALID,87.5702,VALID,0,VALID,18.8839,VALID,60,VALID,0,
2011-03-01, 01:43:04,VALID,916.513,VALID,0,VALID,87.9437,VALID,0,VALID,18.9229,VALID,60,VALID,0,
2011-03-01, 01:44:04,VALID,916.51,VALID,0,VALID,88.4088,VALID,0,VALID,18.9424,VALID,60,VALID,0,
2011-03-01, 01:45:04,VALID,916.484,VALID,0,VALID,88.5079,VALID,0,VALID,18.9229,VALID,60,VALID,0,
2011-03-01, 01:46:04,VALID,916.472,VALID,0,VALID,87.837,VALID,0,VALID,18.9243,VALID,60,VALID,0,
2011-03-01, 01:47:04,VALID,916.453,VALID,0,VALID,87.4787,VALID,0,VALID,18.9019,VALID,60,VALID,0.190234,
2011-03-01, 01:48:04,VALID,916.392,VALID,0,VALID,87.189,VALID,0,VALID,18.9814,VALID,60,VALID,0.159375,
2011-03-01, 01:49:04,VALID,916.385,VALID,0,VALID,87.0747,VALID,0,VALID,19.0413,VALID,60,VALID,0,
2011-03-01, 01:50:04,VALID,916.367,VALID,0,VALID,86.9603,VALID,0,VALID,19.0203,VALID,60,VALID,0,
2011-03-01, 01:51:04,VALID,916.323,VALID,0,VALID,87.4482,VALID,0,VALID,19.0608,VALID,60,VALID,0,
2011-03-01, 01:52:04,VALID,916.366,VALID,0,VALID,87.9437,VALID,0,VALID,18.9814,VALID,60,VALID,0,
2011-03-01, 01:53:04,VALID,916.332,VALID,0,VALID,88.3935,VALID,0,VALID,18.8839,VALID,60,VALID,0,
2011-03-01, 01:54:04,VALID,916.303,VALID,0,VALID,88.5384,VALID,0,VALID,18.7655,VALID,60,VALID,0,
2011-03-01, 01:55:04,VALID,916.336,VALID,0,VALID,88.241,VALID,0,VALID,18.7683,VALID,60,VALID,0,
2011-03-01, 01:56:04,VALID,916.308,VALID,0,VALID,88.424,VALID,0,VALID,18.7878,VALID,60,VALID,0,
2011-03-01, 01:57:04,VALID,916.298,VALID,0,VALID,88.4926,VALID,0,VALID,18.7669,VALID,60,VALID,0.448047,
2011-03-01, 01:58:04,VALID,916.282,VALID,0,VALID,88.3859,VALID,0,VALID,18.7669,VALID,60,VALID,0.583594,
2011-03-01, 01:59:04,VALID,916.283,VALID,0,VALID,88.5612,VALID,0,VALID,18.8059,VALID,60,VALID,0.609766,
2011-03-01, 02:00:04,VALID,916.288,VALID,0,VALID,88.1114,VALID,0,VALID,18.7669,VALID,60,VALID,0.587891,
2011-03-01, 02:01:04,VALID,916.286,VALID,0,VALID,87.6845,VALID,0,VALID,18.8853,VALID,60,VALID,0.484766,
2011-03-01, 02:02:04,VALID,916.301,VALID,0,VALID,87.1661,VALID,0,VALID,18.9619,VALID,60,VALID,0.421484,
2011-03-01, 02:03:04,VALID,916.29,VALID,0,VALID,87.0213,VALID,0,VALID,19.0398,VALID,60,VALID,0.444141,
2011-03-01, 02:04:04,VALID,916.307,VALID,0,VALID,86.8383,VALID,0.107441,VALID,19.0788,VALID,60,VALID,0.398047,
2011-03-01, 02:05:04,VALID,916.248,VALID,0,VALID,87.3491,VALID,0,VALID,19.0593,VALID,18,VALID,1.21992,
2011-03-01, 02:06:04,VALID,916.258,VALID,0,VALID,87.7608,VALID,0.107441,VALID,18.9424,VALID,2,VALID,0.682031,
2011-03-01, 02:07:04,VALID,916.272,VALID,0,VALID,88.2105,VALID,0,VALID,18.9229,VALID,2,VALID,0.751953,
2011-03-01, 02:08:04,VALID,916.265,VALID,0,VALID,87.0365,VALID,0.107441,VALID,19.0008,VALID,2,VALID,0.427734,
2011-03-01, 02:09:04,VALID,916.241,VALID,0,VALID,87.1585,VALID,0.107441,VALID,19.1373,VALID,2,VALID,0.519531,
2011-03-01, 02:10:04,VALID,916.209,VALID,0,VALID,86.5944,VALID,0.107441,VALID,19.1763,VALID,2,VALID,0.410547,
2011-03-01, 02:11:04,VALID,916.229,VALID,0,VALID,86.602,VALID,0.107441,VALID,19.2153,VALID,2,VALID,0.229687,
2011-03-01, 02:12:04,VALID,916.195,VALID,0,VALID,86.4572,VALID,0,VALID,19.1944,VALID,2,VALID,0,
2011-03-01, 02:13:04,VALID,916.229,VALID,0,VALID,85.9235,VALID,0,VALID,19.2543,VALID,2,VALID,0.285547,
2011-03-01, 02:14:04,VALID,916.231,VALID,0,VALID,86.3733,VALID,0,VALID,19.2933,VALID,2,VALID,0.418359,
2011-03-01, 02:15:04,VALID,916.229,VALID,0,VALID,85.9083,VALID,0,VALID,19.2933,VALID,2,VALID,0.541406,
2011-03-01, 02:16:04,VALID,916.239,VALID,0,VALID,86.7621,VALID,0,VALID,19.3518,VALID,2,VALID,0.297656,
2011-03-01, 02:17:04,VALID,916.221,VALID,0,VALID,86.9984,VALID,0,VALID,19.2738,VALID,2,VALID,0.958203,
2011-03-01, 02:18:04,VALID,916.229,VALID,0,VALID,87.0213,VALID,0.107441,VALID,19.2168,VALID,2,VALID,0.661719,
2011-03-01, 02:19:04,VALID,916.179,VALID,0,VALID,86.8612,VALID,0.107441,VALID,19.1958,VALID,2,VALID,0.483594,
2011-03-01, 02:20:04,VALID,916.152,VALID,0,VALID,86.9984,VALID,0,VALID,19.1749,VALID,2,VALID,0.552344,
2011-03-01, 02:21:04,VALID,916.164,VALID,0,VALID,87.4406,VALID,0,VALID,19.1568,VALID,2,VALID,0.746484,
2011-03-01, 02:22:04,VALID,916.146,VALID,0,VALID,86.9832,VALID,0,VALID,19.1178,VALID,2,VALID,0.544141,
2011-03-01, 02:23:04,VALID,916.127,VALID,0,VALID,86.7011,VALID,0.107441,VALID,19.1359,VALID,2,VALID,0.229297,
2011-03-01, 02:24:04,VALID,916.132,VALID,0,VALID,86.4419,VALID,0,VALID,19.1958,VALID,2,VALID,0,
2011-03-01, 02:25:04,VALID,916.167,VALID,0,VALID,86.5486,VALID,0.107441,VALID,19.2139,VALID,2,VALID,0.226953,
2011-03-01, 02:26:04,VALID,916.151,VALID,0,VALID,87.5702,VALID,0,VALID,19.2738,VALID,2,VALID,1.21172,
2011-03-01, 02:27:04,VALID,916.162,VALID,0,VALID,87.1433,VALID,0,VALID,19.2153,VALID,2,VALID,0.439844,
2011-03-01, 02:28:04,VALID,916.155,VALID,0,VALID,87.2195,VALID,0.107441,VALID,19.2153,VALID,2,VALID,0.147656,
2011-03-01, 02:29:04,VALID,916.17,VALID,0,VALID,87.7531,VALID,0.107441,VALID,19.1958,VALID,2,VALID,0.225,
2011-03-01, 02:30:04,VALID,916.182,VALID,0,VALID,88.1114,VALID,0,VALID,19.1178,VALID,2,VALID,0.542578,
2011-03-01, 02:31:04,VALID,916.16,VALID,0,VALID,87.7379,VALID,0.107441,VALID,19.0788,VALID,2,VALID,0.714844,
2011-03-01, 02:32:04,VALID,916.144,VALID,0,VALID,87.9818,VALID,0,VALID,19.0384,VALID,2,VALID,0.680469,
2011-03-01, 02:33:04,VALID,916.135,VALID,0,VALID,87.8904,VALID,0,VALID,19.0413,VALID,2,VALID,0.572266,
2011-03-01, 02:34:04,VALID,916.124,VALID,0,VALID,87.7684,VALID,0,VALID,19.0203,VALID,2,VALID,0.510547,
2011-03-01, 02:35:04,VALID,916.11,VALID,0,VALID,87.5854,VALID,0,VALID,19.0593,VALID,4,VALID,0.841406,
2011-03-01, 02:36:04,VALID,916.13,VALID,0,VALID,87.6007,VALID,0,VALID,19.0998,VALID,7,VALID,0.667969,
2011-03-01, 02:37:04,VALID,916.119,VALID,0,VALID,87.3567,VALID,0,VALID,19.1388,VALID,7,VALID,0.753125,
2011-03-01, 02:38:04,VALID,916.103,VALID,0,VALID,87.2652,VALID,0,VALID,19.1583,VALID,7,VALID,0.783594,
2011-03-01, 02:39:04,VALID,916.092,VALID,0,VALID,87.3491,VALID,0,VALID,19.1568,VALID,7,VALID,0.715234,
2011-03-01, 02:40:04,VALID,916.09,VALID,0,VALID,87.4634,VALID,0,VALID,19.1583,VALID,7,VALID,0.525391,
2011-03-01, 02:41:04,VALID,916.07,VALID,0,VALID,87.5549,VALID,0,VALID,19.1597,VALID,7,VALID,0.267188,
2011-03-01, 02:42:04,VALID,916.091,VALID,0,VALID,87.7303,VALID,0,VALID,19.1388,VALID,7,VALID,0.357812,
2011-03-01, 02:43:04,VALID,916.084,VALID,0,VALID,87.8522,VALID,0,VALID,19.1178,VALID,7,VALID,0.0753906,
2011-03-01, 02:44:04,VALID,916.057,VALID,0,VALID,88.0962,VALID,0,VALID,19.1388,VALID,7,VALID,0,
2011-03-01, 02:45:04,VALID,916.04,VALID,0,VALID,88.1343,VALID,0,VALID,19.1193,VALID,7,VALID,0.348828,
2011-03-01, 02:46:04,VALID,915.991,VALID,0,VALID,88.5231,VALID,0,VALID,19.0983,VALID,7,VALID,0.200391,
2011-03-01, 02:47:04,VALID,915.954,VALID,0,VALID,88.5993,VALID,0,VALID,19.0803,VALID,7,VALID,0,
2011-03-01, 02:48:04,VALID,915.964,VALID,0,VALID,89.2473,VALID,0.107441,VALID,19.0579,VALID,7,VALID,0.569141,
2011-03-01, 02:49:04,VALID,915.918,VALID,0,VALID,88.7747,VALID,0.107441,VALID,19.0203,VALID,7,VALID,0.444922,
2011-03-01, 02:50:04,VALID,915.909,VALID,0,VALID,89.3312,VALID,0.107441,VALID,19.0189,VALID,7,VALID,0.0644531,
2011-03-01, 02:51:04,VALID,915.907,VALID,0,VALID,89.4608,VALID,0.107441,VALID,19.0008,VALID,7,VALID,0,
2011-03-01, 02:52:04,VALID,915.893,VALID,0,VALID,89.3312,VALID,0,VALID,18.9814,VALID,7,VALID,0.416016,
2011-03-01, 02:53:04,VALID,915.92,VALID,0,VALID,89.2245,VALID,0,VALID,18.9619,VALID,7,VALID,0.0398437,
2011-03-01, 02:54:04,VALID,915.895,VALID,0,VALID,89.1177,VALID,0.107441,VALID,18.9814,VALID,7,VALID,0,
2011-03-01, 02:55:04,VALID,915.909,VALID,0,VALID,88.8738,VALID,0,VALID,19.0008,VALID,7,VALID,0.345703,
2011-03-01, 02:56:04,VALID,915.891,VALID,0,VALID,89.2168,VALID,0.107441,VALID,19.0398,VALID,7,VALID,0.000390625,
2011-03-01, 02:57:04,VALID,915.879,VALID,0,VALID,89.011,VALID,0,VALID,19.0203,VALID,7,VALID,0.369922,
2011-03-01, 02:58:04,VALID,915.85,VALID,0,VALID,88.6603,VALID,0,VALID,19.0203,VALID,7,VALID,0.0566406,
2011-03-01, 02:59:04,VALID,915.788,VALID,0,VALID,88.4621,VALID,0.107441,VALID,19.0203,VALID,7,VALID,0,
2011-03-01, 03:00:04,VALID,915.83,VALID,0,VALID,88.6298,VALID,0,VALID,19.0189,VALID,7,VALID,0,
2011-03-01, 03:01:04,VALID,915.831,VALID,0,VALID,88.9348,VALID,0,VALID,19.0593,VALID,7,VALID,0,
2011-03-01, 03:02:04,VALID,915.847,VALID,0,VALID,88.8585,VALID,0,VALID,19.0189,VALID,7,VALID,0,
2011-03-01, 03:03:04,VALID,915.87,VALID,0,VALID,88.8357,VALID,0,VALID,19.0413,VALID,7,VALID,0,
2011-03-01, 03:04:04,VALID,915.867,VALID,0,VALID,88.9729,VALID,0,VALID,19.0008,VALID,7,VALID,0,
2011-03-01, 03:05:04,VALID,915.872,VALID,0,VALID,89.3083,VALID,0,VALID,19.0008,VALID,7,VALID,0,
2011-03-01, 03:06:04,VALID,915.863,VALID,0,VALID,89.4837,VALID,0,VALID,19.0023,VALID,7,VALID,0,
2011-03-01, 03:07:04,VALID,915.85,VALID,0,VALID,89.2854,VALID,0,VALID,18.9828,VALID,7,VALID,0,
2011-03-01, 03:08:04,VALID,915.837,VALID,0,VALID,89.1177,VALID,0,VALID,18.9828,VALID,7,VALID,0,
2011-03-01, 03:09:04,VALID,915.845,VALID,0,VALID,89.5523,VALID,0,VALID,18.9814,VALID,7,VALID,0,
2011-03-01, 03:10:04,VALID,915.82,VALID,0,VALID,89.1863,VALID,0,VALID,18.9814,VALID,7,VALID,0,
2011-03-01, 03:11:04,VALID,915.815,VALID,0,VALID,89.5065,VALID,0,VALID,18.9619,VALID,7,VALID,0,
2011-03-01, 03:12:04,VALID,915.815,VALID,0,VALID,89.0186,VALID,0,VALID,18.9619,VALID,7,VALID,0.134375,
2011-03-01, 03:13:04,VALID,915.8,VALID,0,VALID,88.7289,VALID,0,VALID,19.0218,VALID,7,VALID,0.163672,
2011-03-01, 03:14:04,VALID,915.825,VALID,0,VALID,88.5002,VALID,0,VALID,19.0608,VALID,7,VALID,0.171094,
2011-03-01, 03:15:04,VALID,915.822,VALID,0,VALID,88.3401,VALID,0,VALID,19.0998,VALID,7,VALID,0.184375,
2011-03-01, 03:16:04,VALID,915.773,VALID,0,VALID,88.2944,VALID,0,VALID,19.1193,VALID,7,VALID,0.300391,
2011-03-01, 03:17:04,VALID,915.804,VALID,0,VALID,88.6832,VALID,0,VALID,19.1193,VALID,7,VALID,0.310937,
2011-03-01, 03:18:04,VALID,915.797,VALID,0,VALID,88.5536,VALID,0.107441,VALID,19.0983,VALID,7,VALID,0.447656,
2011-03-01, 03:19:04,VALID,915.769,VALID,0,VALID,88.7289,VALID,0,VALID,19.0983,VALID,7,VALID,0.425,
2011-03-01, 03:20:04,VALID,915.785,VALID,0,VALID,88.7823,VALID,0,VALID,19.0384,VALID,7,VALID,0.366016,
2011-03-01, 03:21:04,VALID,915.79,VALID,0,VALID,88.9043,VALID,0.107441,VALID,19.0398,VALID,7,VALID,0.346094,
2011-03-01, 03:22:04,VALID,915.813,VALID,0,VALID,88.9348,VALID,0.107441,VALID,19.0384,VALID,7,VALID,0.313672,
2011-03-01, 03:23:04,VALID,915.816,VALID,0,VALID,88.9805,VALID,0.107441,VALID,19.0398,VALID,7,VALID,0.159766,
2011-03-01, 03:24:04,VALID,915.823,VALID,0,VALID,88.9576,VALID,0,VALID,19.0398,VALID,7,VALID,0.303125,
2011-03-01, 03:25:04,VALID,915.859,VALID,0,VALID,89.1177,VALID,0,VALID,19.0384,VALID,7,VALID,0.372656,
2011-03-01, 03:26:04,VALID,915.833,VALID,0,VALID,89.1863,VALID,0,VALID,19.0203,VALID,7,VALID,0.357031,
2011-03-01, 03:27:04,VALID,915.819,VALID,0,VALID,89.255,VALID,0.107441,VALID,18.9994,VALID,7,VALID,0.421094,
2011-03-01, 03:28:04,VALID,915.808,VALID,0,VALID,89.3388,VALID,0.107441,VALID,19.0008,VALID,7,VALID,0.435156,
2011-03-01, 03:29:04,VALID,915.775,VALID,0,VALID,89.3464,VALID,0.107441,VALID,18.9799,VALID,7,VALID,0.408984,
2011-03-01, 03:30:04,VALID,915.804,VALID,0,VALID,89.3541,VALID,0,VALID,18.9994,VALID,7,VALID,0.508984,
2011-03-01, 03:31:04,VALID,915.775,VALID,0,VALID,89.2245,VALID,0,VALID,19.0203,VALID,7,VALID,0.489453,
2011-03-01, 03:32:04,VALID,915.794,VALID,0,VALID,89.1177,VALID,0.107441,VALID,19.0398,VALID,7,VALID,0.523438,
2011-03-01, 03:33:04,VALID,915.787,VALID,0,VALID,89.0263,VALID,0,VALID,19.0398,VALID,7,VALID,0.626953,
2011-03-01, 03:34:04,VALID,915.806,VALID,0,VALID,89.1406,VALID,0,VALID,19.0608,VALID,7,VALID,0.437891,
2011-03-01, 03:35:04,VALID,915.792,VALID,0,VALID,89.2702,VALID,0,VALID,19.0608,VALID,7,VALID,0.435547,
2011-03-01, 03:36:04,VALID,915.763,VALID,0,VALID,89.3998,VALID,0,VALID,19.0218,VALID,7,VALID,0.396484,
2011-03-01, 03:37:04,VALID,915.777,VALID,0,VALID,89.5065,VALID,0,VALID,19.0023,VALID,7,VALID,0.327344,
2011-03-01, 03:38:04,VALID,915.773,VALID,0,VALID,89.5446,VALID,0,VALID,19.0023,VALID,7,VALID,0.435156,
2011-03-01, 03:39:04,VALID,915.778,VALID,0,VALID,89.659,VALID,0,VALID,18.9828,VALID,7,VALID,0.508984,
2011-03-01, 03:40:04,VALID,915.773,VALID,0,VALID,89.8343,VALID,0,VALID,18.9619,VALID,7,VALID,0.730078,
2011-03-01, 03:41:04,VALID,915.765,VALID,0,VALID,89.9716,VALID,0,VALID,18.9229,VALID,7,VALID,0.776172,
2011-03-01, 03:42:04,VALID,915.763,VALID,0,VALID,90.0173,VALID,0,VALID,18.9438,VALID,7,VALID,0.767578,
2011-03-01, 03:43:04,VALID,915.761,VALID,0,VALID,90.0859,VALID,0,VALID,18.9438,VALID,7,VALID,0.767187,
2011-03-01, 03:44:04,VALID,915.779,VALID,0,VALID,90.0707,VALID,0,VALID,18.9438,VALID,7,VALID,0.637109,
2011-03-01, 03:45:04,VALID,915.758,VALID,0,VALID,89.9944,VALID,0,VALID,18.9424,VALID,7,VALID,0.602734,
2011-03-01, 03:46:04,VALID,915.75,VALID,0,VALID,89.8267,VALID,0,VALID,18.9633,VALID,7,VALID,0.640234,
2011-03-01, 03:47:04,VALID,915.734,VALID,0,VALID,89.7505,VALID,0,VALID,19.0023,VALID,7,VALID,0.706641,
2011-03-01, 03:48:04,VALID,915.756,VALID,0,VALID,89.7352,VALID,0.107441,VALID,19.0203,VALID,7,VALID,0.658984,
2011-03-01, 03:49:04,VALID,915.724,VALID,0,VALID,89.9411,VALID,0.107441,VALID,19.0008,VALID,7,VALID,0.66875,
2011-03-01, 03:50:04,VALID,915.713,VALID,0,VALID,89.8267,VALID,0,VALID,18.9814,VALID,7,VALID,0.728516,